Location: Huntsville
(41.2590°N, 111.7678°W)
Time: 06:08:57
(UTC+00:00)

Vanguard 2 - Visible Passes

Search period start: 08 December 2023 00:00
Search period end: 18 December 2023 00:00
Orbit: 552 x 2923 km, 32.9° (Epoch: 07 December)

Date Brightness Start Highest point End Pass type
(mag) Time Alt. Az. Time Alt. Az. Time Alt. Az.
08 Dec 11.5 00:11:18 10° SSE 00:19:31 15° SE 00:27:57 10° ESE visible
08 Dec 10.7 02:14:09 10° SSW 02:29:24 39° SSE 02:35:02 32° ESE visible
08 Dec 10.5 04:23:27 10° WSW 04:36:15 49° SSW 04:36:15 49° SSW visible
08 Dec 11.7 06:35:40 10° W 06:37:29 14° W 06:37:29 14° W visible
09 Dec 11.4 00:23:43 10° S 00:34:32 21° SE 00:45:50 10° E visible
09 Dec 10.5 02:28:50 10° SW 02:44:45 45° SSE 02:49:42 38° ESE visible
09 Dec 10.6 04:38:51 10° WSW 04:50:56 47° SW 04:50:56 47° SW visible
09 Dec 11.8 06:51:23 10° W 06:52:09 12° W 06:52:09 12° W visible
10 Dec 11.2 00:37:11 10° S 00:49:36 27° SE 01:02:45 10° E visible
10 Dec 10.4 02:43:46 10° SW 03:00:10 51° SSE 03:04:21 45° SE visible
10 Dec 10.7 04:54:23 10° WSW 05:05:35 44° SW 05:05:35 44° SW visible
11 Dec 11.0 00:51:14 10° SSW 01:04:43 33° SE 01:17:45 13° E visible
11 Dec 10.3 02:58:53 10° SW 03:15:39 56° SSE 03:18:58 51° SE visible
11 Dec 10.8 05:10:00 10° WSW 05:20:12 41° WSW 05:20:12 41° WSW visible
12 Dec 10.9 01:05:41 10° SSW 01:19:53 40° SSE 01:32:21 17° E visible
12 Dec 10.2 03:14:11 10° WSW 03:31:11 60° SSE 03:33:34 57° SE visible
12 Dec 11.0 05:25:39 10° W 05:34:47 36° WSW 05:34:47 36° WSW visible
13 Dec 10.7 01:20:25 10° SW 01:35:09 46° SSE 01:46:55 21° E visible
13 Dec 10.2 03:29:36 10° WSW 03:46:45 63° S 03:48:09 62° SSE visible
13 Dec 11.1 05:41:21 10° W 05:49:21 32° WSW 05:49:21 32° WSW visible
14 Dec 10.6 01:35:23 10° SW 01:50:30 52° SSE 02:01:29 25° E visible
14 Dec 10.2 03:45:07 10° WSW 04:02:22 64° S 04:02:41 64° S visible
14 Dec 11.3 05:57:06 10° W 06:03:54 28° W 06:03:54 28° W visible
15 Dec 10.5 01:50:32 10° SW 02:05:56 57° SSE 02:16:02 30° ESE visible
15 Dec 10.3 04:00:41 10° W 04:17:14 64° SSW 04:17:14 64° SSW visible
15 Dec 11.4 06:12:53 10° W 06:18:27 24° W 06:18:27 24° W visible
16 Dec 10.5 02:05:49 10° WSW 02:21:26 61° SSE 02:30:35 34° ESE visible
16 Dec 10.3 04:16:18 10° W 04:31:48 61° SSW 04:31:48 61° SSW visible
16 Dec 11.6 06:28:45 10° W 06:33:00 20° W 06:33:00 20° W visible
17 Dec 10.8 00:12:56 10° SW 00:25:44 45° SSE 00:41:54 10° E visible
17 Dec 10.4 02:21:13 10° WSW 02:36:59 63° S 02:45:08 39° ESE visible
17 Dec 10.5 04:31:58 10° W 04:46:21 56° SW 04:46:21 56° SW visible
17 Dec 11.7 06:44:45 10° W 06:47:34 16° W 06:47:34 16° W visible
